Location: Newark
(44.2003°N, 3.2583°E)
Time: 03:30:43
(UTC+00:00)

Envisat - Pass Details

Date: 26 September 2019
Orbit: 764 x 766 km, 98.1° (Epoch: 17 October)

Event Time Altitude Azimuth Distance (km) Brightness Sun altitude
Rises 18:59:56 0° 203° (SSW) 3,219 6.4 -15.5°
Reaches altitude 10° 19:02:45 10° 219° (SW) 2,298 5.8 -15.9°
Maximum altitude 19:06:34 21° 268° (W) 1,658 5.6 -16.6°
Drops below altitude 10° 19:10:25 10° 317° (NW) 2,311 6.4 -17.3°
Sets 19:13:16 0° 333° (NNW) 3,242 6.9 -17.8°
